COSMOS 734

导读

COSMOS 734(宇宙734)属于苏联“宇宙”号卫星系列,该系列是世界上卫星数量最多的卫星系列,涵盖应用卫星、科学卫星与技术试验卫星,多数为军用卫星。这颗卫星于1975年5月28日由苏联(独联体CIS)成功发射,同系列中还包含气象卫星、生物卫星、空间探测卫星等多类卫星,部分未能入轨的探测器也编入该系列。

Basic Information
目录编号:
7823
目录名称:
COSMOS 734
国际标识:
1975-045C
轨道中心:
EARTH
卫星名称:
COSMOS 734
卫星全名:
--
卫星状态:
在轨 (已飞行18652 天)
发射日期:
1975-05-28 UTC
国别 :
俄罗斯(独联体) (CIS)
星等 :
--
Orbit Information
数据来源 国际轨道数据 AOE轨道数据
星历时间 2026-06-20T17:30:37+0800
21小时前
查看轨道信息
2026-06-16T01:00:00+0800
5天前
查看轨道信息
半长轴 7835.118km 7835.119km
偏心率 0.0017311 0.0017296
轨道倾角 74.016° 74.017°
近地点辐角 97.159° 103.850°
升交点赤经 218.999° 225.254°
平近点角 274.633° 28.966°
近地点 1443.417km 1443.43km
远地点 1470.545km 1470.534km
周期 115.034分钟 115.034分钟
每日圈数 12.517986 12.517985
Detailed Information
使用方式:
暂无
2D Orbit Map
3D Orbit Map
Orbit Altitude Analysis Chart
Orbit Inclination Analysis Chart
Orbit Comprehensive Analysis Chart
View Comprehensive Chart